Location: Ferchesar
(52.6477°N, 12.4298°E)
Time: 21:36:41
(UTC+01:00)

Transit 2A Rocket - All Passes

Search period start: 03 December 2021 00:00
Search period end: 13 December 2021 00:00
Orbit: 584 x 918 km, 66.7° (Epoch: 03 December)

Date Brightness Start Highest point End Pass type
(mag) Time Alt. Az. Time Alt. Az. Time Alt. Az.
03 Dec - 06:29:04 10° SE 06:31:26 13° E 06:33:50 10° ENE visible
03 Dec - 08:07:10 10° SSW 08:12:49 59° ESE 08:18:48 10° NE daylight
03 Dec - 09:50:08 10° WSW 09:55:45 44° NW 10:01:37 10° NE daylight
03 Dec - 11:35:11 10° WNW 11:39:57 23° NNW 11:44:46 10° NE daylight
03 Dec - 13:19:42 10° NW 13:24:36 24° NNE 13:29:27 10° ENE daylight
03 Dec - 15:02:46 10° NW 15:08:43 47° NE 15:14:26 10° ESE daylight
03 Dec - 16:45:37 10° NW 16:51:32 53° WSW 16:57:10 10° SSE visible
03 Dec - 18:31:19 10° W 18:32:48 11° W 18:34:18 10° WSW visible
04 Dec - 07:25:01 10° S 07:30:18 39° ESE 07:35:55 10° NE visible
04 Dec - 09:07:03 10° WSW 09:12:50 58° NW 09:18:54 10° NE daylight
04 Dec - 10:51:44 10° WNW 10:56:43 26° NNW 11:01:49 10° NE daylight
04 Dec - 12:36:40 10° NW 12:41:22 22° N 12:46:03 10° ENE daylight
04 Dec - 14:20:02 10° NW 14:25:44 37° NNE 14:31:14 10° E daylight
04 Dec - 16:02:48 10° NW 16:08:57 76° SW 16:14:47 10° SSE daylight
04 Dec - 17:46:46 10° WNW 17:50:39 18° WSW 17:54:25 10° SW visible
05 Dec - 06:43:13 10° SSE 06:47:55 26° ESE 06:52:51 10° NE visible
05 Dec - 08:24:10 10° SW 08:30:01 79° NW 08:36:12 10° NE daylight
05 Dec - 10:08:20 10° W 10:13:35 30° NNW 10:18:59 10° NE daylight
05 Dec - 11:53:29 10° NW 11:58:06 22° N 12:02:44 10° NE daylight
05 Dec - 13:37:17 10° NW 13:42:39 30° NNE 13:47:54 10° E daylight
05 Dec - 15:20:03 10° NW 15:26:14 77° NE 15:32:06 10° SE daylight
05 Dec - 17:03:23 10° NW 17:08:22 27° WSW 17:13:09 10° SSW visible
06 Dec - 06:02:01 10° SE 06:05:39 17° ESE 06:09:24 10° ENE visible
06 Dec - 07:41:32 10° SSW 07:47:19 74° SE 07:53:27 10° NE daylight
06 Dec - 09:25:00 10° W 09:30:30 37° NNW 09:36:13 10° NE daylight
06 Dec - 11:10:09 10° WNW 11:14:51 22° N 11:19:34 10° NE daylight
06 Dec - 12:54:25 10° NW 12:59:30 26° NNE 13:04:28 10° ENE daylight
06 Dec - 14:37:21 10° NW 14:43:25 57° NE 14:49:13 10° ESE daylight
06 Dec - 16:20:19 10° NW 16:25:58 41° WSW 16:31:20 10° S daylight
07 Dec - 05:22:30 10° ESE 05:23:30 10° E 05:24:30 10° E visible
07 Dec - 06:59:10 10° SSW 07:04:44 51° ESE 07:10:37 10° NE visible
07 Dec - 08:41:48 10° WSW 08:47:31 48° NW 08:53:29 10° NE daylight
07 Dec - 10:26:45 10° WNW 10:31:36 24° NNW 10:36:32 10° NE daylight
07 Dec - 12:11:27 10° NW 12:16:17 23° N 12:21:03 10° ENE daylight
07 Dec - 13:54:38 10° NW 14:00:29 43° NE 14:06:07 10° ESE daylight
07 Dec - 15:37:26 10° NW 15:43:27 60° WSW 15:49:08 10° SSE daylight
07 Dec - 17:22:14 10° WNW 17:24:52 13° W 17:27:28 10° SW visible
08 Dec - 06:17:07 10° S 06:22:16 34° ESE 06:27:41 10° NE visible
08 Dec - 07:58:47 10° SW 08:04:38 65° NW 08:10:47 10° NE daylight
08 Dec - 09:43:19 10° WNW 09:48:25 27° NNW 09:53:37 10° NE daylight
08 Dec - 11:28:22 10° NW 11:33:02 22° N 11:37:40 10° NE daylight
08 Dec - 13:11:54 10° NW 13:17:28 34° NNE 13:22:51 10° E daylight
08 Dec - 14:54:39 10° NW 15:00:49 86° SW 15:06:39 10° SE daylight
08 Dec - 16:38:20 10° WNW 16:42:40 21° WSW 16:46:50 10° SSW visible
09 Dec - 05:35:30 10° SSE 05:39:55 23° ESE 05:44:31 10° ENE visible
09 Dec - 07:15:59 10° SW 07:21:52 89° NW 07:28:03 10° NE visible
09 Dec - 08:59:56 10° W 09:05:18 33° NNW 09:10:49 10° NE daylight
09 Dec - 10:45:07 10° NW 10:49:46 22° N 10:54:25 10° NE daylight
09 Dec - 12:29:05 10° NW 12:34:21 28° NNE 12:39:30 10° E daylight
09 Dec - 14:11:55 10° NW 14:18:05 69° NE 14:23:54 10° SE daylight
09 Dec - 15:55:06 10° NW 16:00:21 31° WSW 16:05:20 10° S daylight
10 Dec - 04:54:37 10° SE 04:57:41 15° ESE 05:00:50 10° ENE visible
10 Dec - 06:33:26 10° SSW 06:39:12 65° ESE 06:45:17 10° NE visible
10 Dec - 08:16:38 10° WSW 08:22:15 41° NW 08:28:03 10° NE daylight
10 Dec - 10:01:45 10° WNW 10:06:30 23° N 10:11:17 10° NE daylight
10 Dec - 11:46:12 10° NW 11:51:11 25° NNE 11:56:04 10° ENE daylight
10 Dec - 13:29:12 10° NW 13:35:12 51° NE 13:40:55 10° ESE daylight
10 Dec - 15:12:07 10° NW 15:17:55 47° WSW 15:23:22 10° S daylight
11 Dec - 05:51:10 10° S 05:56:40 44° ESE 06:02:26 10° NE visible
11 Dec - 07:33:30 10° WSW 07:39:18 53° NW 07:45:21 10° NE daylight
11 Dec - 09:18:20 10° WNW 09:23:18 25° NNW 09:28:18 10° NE daylight
11 Dec - 11:03:12 10° NW 11:07:57 23° N 11:12:38 10° ENE daylight
11 Dec - 12:46:30 10° NW 12:52:14 39° NNE 12:57:46 10° ESE daylight
11 Dec - 14:29:17 10° NW 14:35:21 69° SW 14:41:04 10° SSE daylight
11 Dec - 16:13:33 10° WNW 16:16:55 16° WSW 16:20:10 10° SW daylight
12 Dec - 05:09:16 10° S 05:14:14 30° ESE 05:19:26 10° NE visible
12 Dec - 06:50:34 10° SW 06:56:27 73° NW 07:02:38 10° NE visible
12 Dec - 08:34:54 10° W 08:40:07 29° NNW 08:45:26 10° NE daylight
12 Dec - 10:20:03 10° NW 10:24:41 22° N 10:29:18 10° NE daylight
12 Dec - 12:03:44 10° NW 12:09:10 32° NNE 12:14:28 10° E daylight
12 Dec - 13:46:31 10° NW 13:52:41 84° NE 13:58:29 10° SE daylight
12 Dec - 15:29:58 10° WNW 15:34:40 24° WSW 15:39:09 10° SSW daylight
